Location: *
(50.2903°S, 172.5375°W)
Time: 15:32:05
(UTC+00:00)

Cosmos 2298 Rocket - Pass Details

Date: 17 November 2019
Orbit: 777 x 783 km, 74.0° (Epoch: 14 December)

Event Time Altitude Azimuth Distance (km) Brightness Sun altitude
Rises 14:11:48 0° 204° (SSW) 3,315 7.6 -10.5°
Reaches altitude 10° 14:14:13 10° 201° (SSW) 2,380 6.9 -10.3°
Maximum altitude 14:19:39 72° 116° (ESE) 840 4.4 -9.7°
Drops below altitude 10° 14:25:00 10° 31° (NNE) 2,351 6.4 -9.1°
Sets 14:27:23 0° 29° (NNE) 3,272 7.1 -8.8°
